Regional Weather Roundup
Issued by NWS

Home | Current Version | Previous Version | Text Only | Print | Product List | Glossary Off
Versions: 1 2 3 4 5 6 7 8 9 10 11 12 13 14 15 16 17 18 19 20 21 22 23 24 25 26 27

000
ASUS45 KBOU 030607
RWRCO

WEATHER ROUNDUP FOR COLORADO
NATIONAL WEATHER SERVICE DENVER/BOULDER CO
1200 AM MDT TUE MAY 03 2016

NOTE: "FAIR" INDICATES FEW OR NO CLOUDS BELOW 12000 FEET WITH NO
SIGNIFICANT WEATHER AND/OR OBSTRUCTIONS TO VISIBILITY.

COZ001>005-013-030-031-030700-
...NORTHWEST COLORADO...

CITY           SKY/WX    TMP DP  RH WIND       PRES   REMARKS
CRAIG          FAIR      36  26  67 CALM      30.22S
HAYDEN         FAIR      39  23  52 S5        30.22S
MEEKER         FAIR      39  28  64 E3        30.23S
MOUNT WERNER   NOT AVBL
STEAMBOAT SPGS FAIR      37  24  61 CALM      30.23S
WALDEN         FAIR      28  19  69 SE7       30.27S WCI  21
$$

COZ006>008-011-030700-
...WEST CENTRAL VALLEYS...

CITY           SKY/WX    TMP DP  RH WIND       PRES   REMARKS
GRAND JUNCTION FAIR      51  36  56 W3        30.16R
MONTROSE       FAIR      45  31  58 SE7       30.22R
EAGLE          FAIR      43  28  56 E3        30.25R
RIFLE          FAIR      44  33  65 SE5       30.19R
DELTA          NOT AVBL
NUCLA          NOT AVBL
$$

COZ017>023-064>068-030700-
...SOUTHWEST COLORADO...

CITY           SKY/WX    TMP DP  RH WIND       PRES   REMARKS
DURANGO        FAIR      37  33  85 NW3       30.21S
CORTEZ         FAIR      37  34  89 NE6       30.20F
PAGOSA SPRINGS FAIR      36  35  95 CALM      30.25S
TELLURIDE      FAIR      34  31  90 SE3       30.31S
WOLF CREEK PAS FAIR      23  23 100 NW5       30.38S WCI  17
$$

COZ009-010-012-014-032>034-037-058>063-030700-
...CENTRAL COLORADO...

CITY           SKY/WX    TMP DP  RH WIND       PRES   REMARKS
ASPEN          FAIR      36  27  69 SW6       30.24S
BUENA VISTA    FAIR      38  27  64 NW5       30.23F
COPPER MTN     NOT AVBL
BERTHOUD PASS  LGT SNOW  18   9  68 NW31G40   30.31F WCI  -2
COTTONWOOD PAS FAIR      37  23  56 SW13      30.29S
GUNNISON       FAIR      37  25  60 N6        30.27R
KREMMLING      FAIR      36  23  60 CALM      30.25S
LEADVILLE      FAIR      27  19  72 N5        30.29S WCI  22
MONARCH PASS   FAIR      27  21  80 MISG      30.45S
SALIDA         FAIR      41  28  59 NW5       30.30S
SUNLIGHT       FAIR      34  23  64 N7        30.38S WCI  28
WILKERSON PASS FAIR      28  19  69 NW14G22   30.33S WCI  17
$$

COZ069>075-030700-
...SAN LUIS VALLEY/SANGRE DE CRISTO MOUNTAINS...

CITY           SKY/WX    TMP DP  RH WIND       PRES   REMARKS
ALAMOSA        FAIR      36  33  89 SE3       30.21R
LA VETA PASS   FAIR      32  28  86 MISG      30.27S
SAGUACHE       FAIR      37  28  70 NW13      30.23S
$$

COZ035-036-038>040-030700-
...NORTHERN COLORADO FRONT RANGE...

CITY           SKY/WX    TMP DP  RH WIND       PRES   REMARKS
DENVER INTL AP MOCLDY    44  29  55 SW8       30.14R
DMNS CITY PARK   N/A     45  28  52 SE7       30.14S
AURORA         FAIR      42  29  59 S5        30.15S
FRONT RANGE AP NOT AVBL
ERIE MUNI ARPT CLOUDY    41  37  84 CALM      30.14S
BOULDER MUN AP FAIR      46  32  57 CALM      30.14S
CENTENNIAL     FAIR      39  29  67 S5        30.15S
BROOMFIELD     MOCLDY    45  32  61 CALM      30.15S
FORT COLLINS   FAIR      46  28  49 NE9       30.15S
LONGMONT       MOCLDY    47  34  60 NW3       30.16S
$$

COZ041-046-047-076>085-087-088-030700-
...PIKES PEAK/PALMER DIVIDE AND SOUTHERN FOOTHILLS...

CITY           SKY/WX    TMP DP  RH WIND       PRES   REMARKS
COLO. SPRINGS  FAIR      42  23  46 NW8       30.18F
A. F. ACADEMY  FAIR      32  25  74 N9        30.17F WCI  24
SCHRIEVER AFB  NOT AVBL
ELLICOTT       FAIR       1 N/A N/A NW3       30.16S
FALCON         FAIR      36  26  65 NW8       30.19S
FORT CARSON    FAIR      42  30  61 W7        30.15F
LIMON          FAIR      33  30  88 NW7       30.12F WCI  27
MONUMENT HILL  MOCLDY    36  23  60 SW8       30.19F
TRINIDAD       FAIR      41  34  76 N5        30.14S
$$

COZ042>045-048>051-090-091-030700-
...NORTHEAST COLORADO...

CITY           SKY/WX    TMP DP  RH WIND       PRES   REMARKS
GREELEY ARPT   FAIR      45  30  57 NW6       30.14R
AKRON          CLOUDY    44  34  67 NW8       30.07F
BURLINGTON     FAIR      40  32  73 CALM      30.09S
WRAY           NOT AVBL
STERLING       FAIR      46  36  66 NW12      30.06S
HOLYOKE        NOT AVBL
FORT MORGAN    FAIR      46  31  56 NW13      30.10S
$$

COZ086-089-092>099-030700-
...SOUTHEAST COLORADO...

CITY           SKY/WX    TMP DP  RH WIND       PRES   REMARKS
PUEBLO         FAIR      43  34  70 VRB5      30.13F
LA JUNTA       FAIR      47  33  58 W8        30.11S
LAMAR          CLOUDY    41  34  76 W5        30.08S
SPRINGFIELD      N/A     35  31  85 SW7       30.12F WCI  29
$$




USA.gov is the U.S. government's official web portal to all federal, state and local government web resources and services.